Regional Weather Roundup
Issued by NWS

Home | Current Version | Previous Version | Graphics & Text | Print | Product List | Glossary On
Versions: 1 2 3 4 5 6 7 8 9 10 11 12 13 14 15 16 17 18 19 20 21 22 23 24 25 26 27 28 29 30 31 32 33 34 35 36 37 38 39 40 41 42 43 44 45 46 47 48 49 50
000
ASUS43 KOAX 262210
RWRNE

WEATHER ROUNDUP FOR NEBRASKA
NATIONAL WEATHER SERVICE OMAHA NE
500 PM CDT TUE AUG 26 2014

NOTES: SATELLITE DATA IS BEING USED TO AUGMENT CLOUD COVER ABOVE
       12000 FEET.
       "FAIR" INDICATES FEW OR NO CLOUDS BELOW 12,000 FEET WITH NO
       SIGNIFICANT WEATHER AND/OR OBSTRUCTIONS TO VISIBILITY.

  * THESE STATIONS DO NOT REPORT WEATHER SUCH AS RAIN...SNOW OR FOG.

NEZ001>004-019>022-054>056-262300-
NEBRASKA PANHANDLE

CITY           SKY/WX    TMP DP  RH WIND       PRES   REMARKS
SCOTTSBLUFF    MOSUNNY   88  53  30 SE10      30.07F
ALLIANCE       MOSUNNY   84  56  38 S18G24    30.11F
CHADRON        PTSUNNY   83  58  42 NE10      30.05F
KIMBALL        SUNNY     80  57  45 SE18      30.15S
SIDNEY         PTSUNNY   77  61  57 SE15      30.16S
$$

NEZ057>060-069>072-079>082-262300-
SOUTHWEST NEBRASKA

CITY           SKY/WX    TMP DP  RH WIND       PRES   REMARKS
NORTH PLATTE   MOSUNNY   80  61  52 SE12      30.11F
IMPERIAL       PTSUNNY   76  62  62 SE10      30.13F
LEXINGTON      MOSUNNY   78  68  69 S8        30.11F
MCCOOK         SUNNY     82  65  56 E9        30.10F
OGALLALA       PTSUNNY   75  60  58 S9        30.13F
$$

NEZ005>010-023>029-035>040-094-262300-
NORTH CENTRAL NEBRASKA

CITY           SKY/WX    TMP DP  RH WIND       PRES   REMARKS
VALENTINE      SUNNY     80  58  46 S9        30.10F
AINSWORTH      SUNNY     77  61  57 SE9       30.11F
BROKEN BOW     SUNNY     79  64  60 SE14G22   30.12F
O`NEILL        SUNNY     76  60  58 E8        30.14S
ORD            MOSUNNY   75  63  66 SE9       30.11F
THEDFORD       SUNNY     83  61  47 S9        30.11F
$$

NEZ041-046>049-061>064-073>077-083>087-262300-
SOUTH CENTRAL NEBRASKA

CITY           SKY/WX    TMP DP  RH WIND       PRES   REMARKS
GRAND ISLAND   MOSUNNY   80  68  66 SE8       30.12F
AURORA         PTSUNNY   77  68  72 SE3       30.11F
HASTINGS       MOSUNNY   79  66  64 NE9       30.10F
HEBRON         SUNNY     86  64  47 SE6       30.06F
HOLDREGE       SUNNY     79  67  67 NE5       30.10F
KEARNEY *      SUNNY     79  68  69 NE6       30.12F
YORK           PTSUNNY   77 N/A N/A E7        30.11F
$$

NEZ011>018-030>034-042>045-262300-
NORTHEAST NEBRASKA

CITY           SKY/WX    TMP DP  RH WIND       PRES   REMARKS
NORFOLK        PTSUNNY   72  63  73 E8        30.13F
ALBION         PTSUNNY   74  64  71 SE6       30.13F
BLAIR          PTSUNNY   76  66  69 E9        30.12S
FREMONT        PTSUNNY   76  65  66 NE7       30.13S
TEKAMAH        PTSUNNY   76  65  68 NE6       30.12F
WAYNE          PTSUNNY   71  63  75 E7        30.14F
$$

NEZ050>053-065>068-078-088>093-262300-
SOUTHEAST NEBRASKA

CITY           SKY/WX    TMP DP  RH WIND       PRES   REMARKS
LINCOLN        MOSUNNY   80  67  64 NE12      30.10F
OMAHA EPPLEY   PTSUNNY   77  65  66 SE5       30.12S
BEATRICE       MOSUNNY   86  69  56 NE7       30.07S HX  90
FALLS CITY     MOSUNNY   86  69  56 E7        30.08F HX  90
NEBRASKA CITY  MOSUNNY   78  69  72 E10       30.08F
PLATTSMOUTH    PTSUNNY   76  66  71 NE3       30.13R
$$

NEZ044-045-051>053-067-262300-
OMAHA AREA

CITY           SKY/WX    TMP DP  RH WIND       PRES   REMARKS
OMAHA EPPLEY   PTSUNNY   77  65  66 SE5       30.12S
BLAIR          PTSUNNY   76  66  69 E9        30.12S
FREMONT        PTSUNNY   76  65  66 NE7       30.13S
MILLARD        PTSUNNY   77  67  71 E5        30.11R
OFFUTT AFB     PTSUNNY   77  70  79 E6        30.12S
PLATTSMOUTH    PTSUNNY   76  66  71 NE3       30.13R
WAHOO          MOCLDY    78  66  66 NE7       30.11F
$$


USA.gov is the U.S. government's official web portal to all federal, state and local government web resources and services.